LRSB Weather Reports


time (UTC)temp
C
wind
direction
speed
KPH
gust
KPH
rain 1hr
cm
rain 24hr
cm
rain mn
cm
humidity
%
barometer
mb
20260509161811 13 330 12.9 0.0 0.00 0.00 0.00 94 1016.0
20260509160311 13 330 12.9 0.0 0.00 0.00 0.00 94 1016.0
20260509154811 15 320 11.3 0.0 0.00 0.00 0.00 94 1016.0
20260509153311 15 320 11.3 0.0 0.00 0.00 0.00 94 1016.0
20260509151812 15 310 9.7 0.0 0.00 0.00 0.00 88 1016.0
20260509150311 15 310 9.7 0.0 0.00 0.00 0.00 88 1016.0
20260509144811 15 300 11.3 0.0 0.00 0.00 0.00 94 1016.0
20260509143311 15 300 11.3 0.0 0.00 0.00 0.00 94 1016.0
20260509141808 15 300 16.1 0.0 0.00 0.00 0.00 88 1015.0
20260509140311 15 300 16.1 0.0 0.00 0.00 0.00 88 1015.0
20260509134811 15 280 16.1 0.0 0.00 0.00 0.00 88 1015.0
20260509133311 15 280 16.1 0.0 0.00 0.00 0.00 88 1015.0
20260509131811 15 270 12.9 0.0 0.00 0.00 0.00 94 1015.0
20260509130311 15 270 12.9 0.0 0.00 0.00 0.00 94 1015.0
20260509124812 15 290 14.5 0.0 0.00 0.00 0.00 94 1016.0
20260509123311 15 290 14.5 0.0 0.00 0.00 0.00 94 1016.0
20260509120311 16 270 12.9 0.0 0.00 0.00 0.00 94 1015.0
20260509114811 16 300 14.5 0.0 0.00 0.00 0.00 88 1015.0
20260509113311 16 300 14.5 0.0 0.00 0.00 0.00 88 1015.0
20260509111811 16 330 14.5 0.0 0.00 0.00 0.00 94 1015.0
20260509110311 16 330 14.5 0.0 0.00 0.00 0.00 94 1015.0
20260509104810 16 320 16.1 0.0 0.00 0.00 0.00 88 1015.0
20260509103311 16 320 16.1 0.0 0.00 0.00 0.00 88 1015.0
20260509101811 16 330 16.1 0.0 0.00 0.00 0.00 94 1015.0
20260509100311 16 330 16.1 0.0 0.00 0.00 0.00 94 1015.0
20260509094811 16 330 12.9 0.0 0.00 0.00 0.00 88 1015.0
20260509093310 16 330 12.9 0.0 0.00 0.00 0.00 88 1015.0
20260509091936 16 330 9.7 0.0 0.00 0.00 0.00 88 1015.0
20260509090312 16 330 9.7 0.0 0.00 0.00 0.00 88 1015.0
20260509084811 16 330 8.0 0.0 0.00 0.00 0.00 88 1016.0
20260509083311 16 330 8.0 0.0 0.00 0.00 0.00 88 1016.0
20260509081843 16 340 4.8 0.0 0.00 0.00 0.00 88 1016.0
20260509080311 16 340 4.8 0.0 0.00 0.00 0.00 88 1016.0
20260509074811 15 3.2 0.0 0.00 0.00 0.00 94 1015.0
20260509073311 15 3.2 0.0 0.00 0.00 0.00 94 1015.0
20260509071811 15 280 4.8 0.0 0.00 0.00 0.00 94 1015.0
20260509070311 15 280 4.8 0.0 0.00 0.00 0.00 94 1015.0
20260509064811 15 1.6 0.0 0.00 0.00 0.00 94 1015.0
20260509063311 15 1.6 0.0 0.00 0.00 0.00 94 1015.0
20260509061811 13 160 3.2 0.0 0.00 0.00 0.00 94 1015.0
20260509060311 13 160 3.2 0.0 0.00 0.00 0.00 94 1015.0
20260509054811 13 110 4.8 0.0 0.00 0.00 0.00 94 1015.0
20260509053311 13 110 4.8 0.0 0.00 0.00 0.00 94 1015.0
20260509051811 12 80 3.2 0.0 0.00 0.00 0.00 100 1015.0
20260509050310 12 80 3.2 0.0 0.00 0.00 0.00 100 1015.0
20260509044812 12 1.6 0.0 0.00 0.00 0.00 100 1015.0
20260509043311 12 1.6 0.0 0.00 0.00 0.00 100 1015.0
20260509041811 12 1.6 0.0 0.00 0.00 0.00 100 1015.0
20260509040311 12 1.6 0.0 0.00 0.00 0.00 100 1015.0
20260509034811 12 1.6 0.0 0.00 0.00 0.00 94 1015.0
20260509033311 12 1.6 0.0 0.00 0.00 0.00 94 1015.0
20260509031811 12 230 4.8 0.0 0.00 0.00 0.00 100 1015.0
20260509030311 12 230 4.8 0.0 0.00 0.00 0.00 100 1015.0
20260509024810 12 3.2 0.0 0.00 0.00 0.00 94 1015.0
20260509023310 12 3.2 0.0 0.00 0.00 0.00 94 1015.0
20260509021811 12 1.6 0.0 0.00 0.00 0.00 94 1015.0
20260509020311 12 1.6 0.0 0.00 0.00 0.00 94 1015.0
20260509014811 12 200 4.8 0.0 0.00 0.00 0.00 100 1015.0
20260509013311 12 200 4.8 0.0 0.00 0.00 0.00 100 1015.0
20260509011811 12 210 1.6 0.0 0.00 0.00 0.00 94 1015.0
20260509010311 12 210 1.6 0.0 0.00 0.00 0.00 94 1015.0
20260509004811 12 360 3.2 0.0 0.00 0.00 0.00 94 1015.0
20260509003311 12 360 3.2 0.0 0.00 0.00 0.00 94 1015.0
20260509001811 12 350 1.6 0.0 0.00 0.00 0.00 88 1015.0
20260509000311 12 350 1.6 0.0 0.00 0.00 0.00 88 1015.0
20260508234811 12 1.6 0.0 0.00 0.00 0.00 100 1015.0
20260508233311 12 160 3.2 0.0 0.00 0.00 0.00 100 1015.0
20260508231811 11 250 4.8 0.0 0.00 0.00 0.00 100 1015.0
20260508230311 11 250 4.8 0.0 0.00 0.00 0.00 100 1015.0
20260508224811 12 270 8.0 0.0 0.00 0.00 0.00 94 1015.0
20260508223311 12 270 8.0 0.0 0.00 0.00 0.00 94 1015.0
20260508221811 12 240 4.8 0.0 0.00 0.00 0.00 94 1015.0
20260508220311 12 240 4.8 0.0 0.00 0.00 0.00 94 1015.0
20260508214810 15 290 4.8 0.0 0.00 0.00 0.00 82 1015.0
20260508213311 15 290 4.8 0.0 0.00 0.00 0.00 82 1015.0
20260508211811 13 250 4.8 0.0 0.00 0.00 0.00 82 1016.0
20260508210311 13 250 4.8 0.0 0.00 0.00 0.00 82 1016.0
20260508204811 15 3.2 0.0 0.00 0.00 0.00 88 1016.0
20260508203311 15 3.2 0.0 0.00 0.00 0.00 88 1016.0
20260508201811 15 3.2 0.0 0.00 0.00 0.00 88 1016.0
20260508200311 15 3.2 0.0 0.00 0.00 0.00 88 1016.0
20260508194812 15 220 9.7 0.0 0.00 0.00 0.00 94 1016.0
20260508193311 15 220 9.7 0.0 0.00 0.00 0.00 94 1016.0
20260508191811 16 180 8.0 0.0 0.00 0.00 0.00 88 1016.0
20260508190311 16 180 8.0 0.0 0.00 0.00 0.00 88 1016.0
20260508184811 16 130 8.0 0.0 0.00 0.00 0.00 88 1015.0
20260508183311 16 130 8.0 0.0 0.00 0.00 0.00 88 1015.0
20260508181814 17 1.6 0.0 0.00 0.00 0.00 83 1015.0
20260508180311 17 1.6 0.0 0.00 0.00 0.00 83 1015.0
20260508174812 17 130 8.0 0.0 0.00 0.00 0.00 83 1014.0
20260508173311 17 130 8.0 0.0 0.00 0.00 0.00 83 1014.0
20260508171811 17 120 9.7 0.0 0.00 0.00 0.00 78 1014.0
20260508170311 17 120 9.7 0.0 0.00 0.00 0.00 78 1014.0
20260508164811 17 110 9.7 0.0 0.00 0.00 0.00 83 1014.0
20260508163312 17 110 9.7 0.0 0.00 0.00 0.00 83 1014.0